Wind_Speed
14 9 6 5 3 4 7 6 6 6 6 7 7 7 7 7 7 6 8 10 10 11 11 12 12 14 16 18 19 20 22 23 24 21 17 16 17 18 19 19 19 20 20 20
11 8 8 8 9 9 9 7 5 4 3 3 3 3 3 4 4 5 6 8 9 11 12 13 13 15 16 17 19 20 22 23 22 19 16 16 18 19 20 20 20 20 20 20
12 10 10 10 10 10 9 9 7 6 6 4 3 2 0 0 1 2 3 5 6 8 10 10 11 12 13 15 16 17 18 19 19 17 17 18 18 20 21 22 22 22 21 20
13 12 12 11 11 10 11 10 11 12 10 9 8 6 5 4 3 2 1 2 3 3 4 5 7 8 9 11 13 14 16 17 17 18 18 19 20 21 22 22 22 23 22 21
13 14 13 12 12 12 13 12 12 12 11 10 10 9 9 8 7 5 5 4 3 1 1 3 5 7 10 12 14 15 16 17 17 18 19 19 20 21 21 21 21 22 21 20
14 13 14 13 13 13 13 13 12 12 12 11 10 10 10 9 8 6 5 4 2 1 3 5 7 9 11 12 14 14 15 16 16 17 18 18 19 20 20 20 20 19 19 19
15 14 14 14 13 13 13 13 12 11 11 11 11 11 11 10 8 7 5 4 3 4 6 7 8 10 11 13 14 15 16 16 17 17 18 19 19 20 19 19 18 18 18 18
15 14 14 13 12 13 13 13 12 11 10 11 11 12 11 10 9 8 7 6 7 7 8 9 10 11 13 14 15 16 17 17 17 18 19 19 19 18 18 17 17 17 18 19
13 12 11 11 11 11 11 11 10 9 9 10 11 11 10 10 9 9 9 10 10 10 10 11 12 12 13 15 16 17 17 18 18 19 19 19 18 17 16 16 17 18 20 21
12 11 9 9 9 9 9 9 8 8 8 9 9 9 9 9 10 10 11 11 11 12 12 13 14 14 15 16 17 18 18 18 18 18 17 16 15 15 15 16 17 19 20 21
10 10 9 8 6 7 7 6 7 7 8 8 8 8 8 9 10 11 12 12 12 13 14 15 15 15 15 16 16 16 16 16 16 15 14 13 13 13 14 15 17 18 18 19
8 9 8 7 6 6 6 5 5 6 6 6 6 6 7 8 9 11 12 13 14 14 15 15 15 16 17 17 16 15 15 14 13 13 12 12 12 13 13 14 15 15 16 17
9 7 7 6 5 4 4 4 4 4 4 4 4 5 5 7 8 10 12 13 15 16 16 16 16 17 17 17 16 16 15 15 14 13 13 13 13 13 13 13 13 14 14 14
13 7 4 4 4 3 3 2 2 2 2 2 2 3 4 5 7 9 11 13 15 16 16 16 17 18 18 17 17 17 16 16 16 16 15 15 15 15 14 14 14 14 14 13
20 11 5 2 1 2 2 2 1 1 1 1 0 1 3 4 6 8 11 13 14 15 16 16 17 18 18 17 17 17 17 17 18 18 18 18 18 17 17 17 16 16 15 14
26 20 12 5 1 2 2 3 3 3 3 3 2 2 3 3 5 7 9 11 13 14 15 16 17 17 17 17 17 17 18 18 18 19 19 19 20 20 20 20 19 18 17 15
25 24 19 13 6 3 4 5 5 6 6 6 6 6 5 4 4 5 7 9 11 13 14 15 15 16 16 17 17 17 18 18 19 19 20 20 21 21 22 22 22 21 20 19
21 22 22 18 14 9 5 6 7 8 8 9 9 9 8 7 6 5 5 7 9 11 12 13 13 14 14 15 16 17 17 17 17 18 19 20 20 21 22 23 24 24 24 23
15 18 19 19 17 15 11 8 8 9 11 12 13 13 12 11 9 7 5 4 6 9 10 11 11 12 12 13 14 15 15 16 16 16 17 17 18 19 20 21 22 23 23 23
12 14 16 17 18 17 16 14 11 10 11 13 14 14 14 13 12 10 7 5 4 6 8 9 9 9 10 11 12 13 14 14 15 15 15 15 16 17 18 18 19 20 21 21
11 12 13 15 16 17 18 18 17 14 13 13 14 15 16 15 14 13 10 8 5 4 5 7 7 8 8 9 10 11 12 12 13 13 14 15 15 15 16 16 16 17 18 18
12 12 13 14 15 17 18 19 20 19 17 14 13 14 16 17 16 15 14 11 8 6 5 5 6 6 6 6 7 9 10 11 12 13 14 14 15 15 15 15 15 15 16 16
15 14 14 14 15 17 18 20 21 21 21 19 18 15 14 17 18 17 17 15 12 9 7 6 5 5 5 4 5 6 7 8 10 11 13 14 15 15 15 15 15 14 14 14
17 16 16 16 16 17 18 19 21 22 23 23 21 19 13 14 18 18 18 18 16 14 11 9 7 6 5 4 3 4 5 6 8 9 11 13 14 15 15 14 14 14 14 13
20 19 18 18 18 18 19 19 21 22 23 24 23 21 17 13 14 18 20 20 19 17 15 12 10 9 8 6 5 4 3 4 6 8 10 12 13 14 14 13 13 12 13 13
23 21 20 19 20 20 20 21 21 22 23 24 25 24 21 16 13 14 18 21 21 20 18 16 14 13 11 9 8 6 5 5 6 7 9 11 12 13 13 12 12 11 11 12
26 24 23 21 21 21 22 22 23 23 23 24 25 24 23 21 16 14 16 19 22 22 21 20 19 17 15 13 11 9 8 7 7 8 9 10 11 12 12 11 11 10 10 10
Wind_Direction
343 341 357 35 90 128 157 168 189 215 243 267 282 291 290 293 289 272 261 260 255 253 258 258 256 256 260 264 268 273 279 283 282 284 288 290 291 293 292 290 286 283 280 277
6 17 35 61 87 102 115 132 144 156 188 248 286 282 290 295 281 261 253 249 249 255 259 261 262 266 268 270 274 277 282 285 290 294 298 293 293 294 293 291 289 285 282 278
32 46 63 74 83 92 102 116 117 117 116 103 64 44 74 300 261 265 239 234 244 252 257 261 264 271 278 282 283 284 287 293 299 298 296 295 295 295 293 292 291 288 284 281
49 57 65 77 84 88 96 104 105 105 103 100 92 89 92 85 79 79 113 181 224 248 264 274 280 281 282 285 290 293 295 296 298 298 298 298 296 296 295 293 291 288 286 284
55 58 66 76 83 85 91 96 105 107 102 96 92 92 89 84 83 83 86 94 99 110 280 279 282 284 286 289 294 296 297 297 298 299 299 299 298 299 298 296 294 291 288 285
60 65 67 76 83 85 92 99 104 106 105 100 97 97 92 89 87 84 81 74 54 339 299 294 295 296 297 299 300 301 300 300 302 303 303 302 301 301 299 297 294 292 289 286
70 71 71 77 85 88 96 102 100 97 102 105 103 100 96 91 85 76 64 43 3 333 322 318 316 314 312 311 310 309 307 306 307 307 307 306 305 303 300 297 295 292 290 288
71 74 76 81 84 90 101 99 97 94 100 107 105 101 96 88 75 58 38 18 2 351 342 334 328 323 319 316 313 311 309 308 307 307 308 307 306 303 300 297 295 294 292 291
69 76 80 85 89 94 100 98 93 91 98 108 106 100 90 76 59 40 24 12 4 357 349 342 335 330 326 322 319 315 311 309 307 307 308 307 306 304 301 299 298 297 296 295
66 75 86 93 98 99 100 91 85 85 96 108 105 96 83 63 44 30 20 13 7 1 354 349 343 339 335 330 325 321 317 314 312 312 313 313 311 309 307 305 304 302 302 301
65 77 88 98 102 101 101 93 83 86 98 102 98 87 69 49 33 23 18 13 9 4 358 354 350 347 344 339 335 331 327 324 323 324 325 324 322 318 315 313 311 311 312 313
59 73 84 92 98 102 101 98 94 99 101 96 88 76 58 40 25 17 14 11 7 4 1 359 357 356 353 352 352 350 347 346 346 348 348 345 339 334 330 326 325 325 327 329
46 66 78 84 102 117 115 105 97 104 103 94 79 62 47 31 19 14 12 8 7 6 6 6 5 5 4 5 7 8 9 12 13 13 12 8 4 358 353 350 347 345 344 345
37 51 73 78 94 120 138 130 113 107 113 102 69 43 29 20 13 11 10 9 8 9 10 12 12 13 15 18 21 24 27 29 31 31 30 26 23 19 14 10 7 5 6 6
33 37 42 52 91 138 164 186 209 231 233 221 31 3 358 3 6 7 8 9 11 13 15 16 18 21 25 29 32 35 37 40 41 40 39 36 32 29 26 22 20 20 21 23
31 34 34 26 324 238 233 239 245 249 246 240 252 288 316 335 352 0 6 10 13 15 17 20 23 26 31 36 39 41 43 43 43 42 41 39 36 35 33 32 32 33 34 34
26 32 34 32 18 303 269 265 261 257 254 256 261 270 281 292 317 343 360 8 13 15 17 22 27 32 36 39 41 42 43 44 43 43 43 42 41 41 40 40 41 43 45 47
15 21 26 27 24 10 321 288 273 266 261 263 266 268 270 273 281 303 339 360 10 14 16 21 30 36 39 41 41 42 43 43 43 43 45 45 45 46 46 47 48 49 51 53
0 8 15 19 20 16 6 335 301 281 275 273 270 267 267 265 265 271 292 332 357 8 12 18 27 35 40 43 42 41 40 40 40 42 43 45 46 46 47 48 50 52 53 54
340 349 358 5 10 11 9 3 346 315 295 284 278 268 262 259 257 257 262 282 322 351 4 12 20 29 37 43 43 41 38 37 38 39 40 41 43 45 45 46 48 50 51 51
315 327 336 345 353 359 3 5 2 351 329 305 286 272 262 257 254 252 253 257 272 310 342 358 9 18 28 37 40 39 36 34 35 37 37 38 39 40 41 41 42 43 45 46
293 305 316 325 333 340 346 351 357 360 355 342 318 288 265 255 252 251 251 251 253 267 299 328 347 1 11 24 33 35 33 32 32 34 34 34 34 34 35 36 37 39 40 41
278 286 297 308 317 324 329 334 339 347 353 350 344 323 282 257 252 252 252 250 248 250 264 286 309 329 343 359 16 27 28 27 28 29 30 29 28 28 29 31 32 34 35 36
267 272 281 292 301 309 315 321 327 332 339 345 345 342 316 269 253 253 254 251 248 246 248 259 277 292 306 318 338 2 14 15 16 17 18 19 18 18 19 21 24 26 27 28
258 263 270 279 287 295 301 308 314 320 326 334 339 342 336 309 269 254 253 252 249 245 243 246 258 271 280 288 296 310 330 345 353 357 2 5 6 8 9 11 13 15 18 20
252 257 263 270 277 283 290 295 302 308 314 321 330 336 337 327 301 271 258 252 249 246 243 242 247 257 266 274 279 283 291 305 321 333 342 349 353 356 359 1 4 6 9 12
248 252 257 262 268 274 280 285 291 296 302 308 315 323 331 331 317 294 273 257 249 247 246 243 242 248 256 264 270 273 276 281 292 306 320 330 337 341 346 351 355 358 1 5
Height
5744 5741 5740 5740 5741 5743 5746 5750 5754 5757 5760 5761 5763 5764 5764 5765 5767 5769 5771 5773 5775 5777 5780 5781 5783 5784 5785 5785 5784 5783 5782 5780 5777 5775 5774 5774 5773 5772 5771 5770 5768 5767 5767 5766
5745 5743 5743 5743 5744 5745 5748 5751 5754 5757 5760 5761 5762 5763 5764 5765 5766 5767 5768 5770 5772 5774 5775 5777 5778 5779 5779 5779 5778 5777 5776 5773 5770 5769 5769 5769 5769 5768 5766 5765 5763 5762 5761 5760
5748 5747 5747 5747 5748 5749 5751 5753 5755 5758 5761 5762 5763 5764 5764 5765 5765 5767 5768 5769 5770 5772 5773 5773 5774 5774 5774 5774 5773 5772 5771 5769 5768 5766 5766 5765 5764 5762 5760 5759 5757 5756 5755 5754
5752 5753 5752 5754 5752 5753 5754 5756 5758 5760 5762 5763 5764 5765 5765 5766 5766 5767 5768 5769 5770 5771 5771 5772 5771 5771 5772 5771 5770 5769 5768 5766 5765 5763 5761 5760 5758 5756 5754 5752 5750 5749 5748 5747
5757 5756 5756 5757 5756 5757 5758 5760 5761 5763 5764 5765 5766 5767 5767 5768 5769 5769 5770 5771 5771 5772 5772 5771 5771 5771 5770 5769 5768 5766 5764 5763 5761 5759 5757 5755 5752 5750 5748 5746 5744 5742 5741 5740
5761 5761 5761 5762 5761 5762 5764 5764 5766 5766 5767 5768 5769 5769 5770 5771 5771 5772 5772 5773 5773 5773 5772 5772 5771 5770 5768 5767 5765 5763 5761 5759 5757 5755 5752 5749 5747 5744 5742 5740 5738 5736 5735 5734
5766 5766 5766 5766 5766 5768 5769 5770 5770 5770 5770 5771 5772 5772 5773 5773 5774 5775 5775 5774 5774 5773 5772 5771 5770 5768 5766 5765 5763 5760 5758 5755 5753 5750 5747 5744 5741 5739 5737 5734 5733 5731 5730 5729
5771 5771 5773 5771 5771 5772 5772 5772 5773 5773 5774 5774 5775 5775 5776 5776 5777 5777 5776 5776 5774 5773 5771 5770 5769 5767 5765 5763 5760 5757 5755 5752 5749 5746 5743 5740 5737 5734 5732 5730 5728 5726 5725 5723
5776 5777 5775 5775 5775 5775 5775 5776 5776 5776 5777 5777 5777 5778 5778 5778 5778 5778 5777 5776 5774 5773 5771 5769 5767 5765 5763 5760 5757 5754 5751 5748 5745 5742 5738 5735 5732 5730 5727 5726 5724 5722 5720 5718
5779 5778 5778 5778 5778 5778 5778 5779 5779 5779 5779 5779 5780 5780 5780 5780 5779 5779 5778 5776 5774 5772 5770 5768 5766 5763 5760 5757 5754 5750 5747 5744 5741 5737 5734 5731 5728 5726 5724 5722 5719 5717 5715 5712
5782 5781 5780 5780 5780 5781 5781 5781 5781 5781 5781 5782 5782 5782 5782 5781 5780 5779 5778 5776 5774 5772 5769 5767 5764 5761 5758 5755 5751 5748 5744 5740 5737 5733 5730 5727 5725 5722 5720 5718 5715 5713 5710 5707
5784 5783 5783 5782 5782 5782 5783 5782 5782 5782 5783 5783 5783 5783 5783 5782 5782 5780 5779 5777 5775 5772 5769 5766 5763 5760 5756 5753 5749 5746 5742 5738 5734 5731 5728 5725 5722 5720 5717 5715 5712 5709 5706 5703
5786 5785 5784 5784 5783 5784 5784 5784 5784 5783 5784 5784 5784 5784 5784 5783 5782 5781 5779 5777 5775 5772 5769 5766 5763 5759 5756 5752 5748 5745 5741 5737 5733 5730 5727 5724 5722 5719 5716 5714 5710 5707 5704 5701
5787 5786 5785 5785 5785 5785 5785 5785 5784 5784 5784 5784 5784 5784 5784 5783 5783 5782 5780 5778 5776 5773 5770 5767 5763 5760 5756 5752 5749 5745 5742 5738 5735 5732 5729 5726 5723 5720 5716 5713 5710 5707 5704 5700
5790 5787 5787 5786 5785 5785 5785 5785 5785 5784 5784 5784 5784 5784 5784 5783 5783 5782 5780 5779 5776 5774 5771 5768 5764 5761 5757 5754 5751 5748 5744 5741 5738 5735 5731 5728 5725 5721 5718 5714 5711 5708 5704 5701
5793 5790 5788 5787 5786 5786 5785 5785 5785 5784 5784 5784 5784 5784 5784 5783 5783 5782 5781 5779 5777 5775 5772 5769 5766 5763 5759 5756 5753 5750 5747 5744 5741 5738 5735 5731 5728 5724 5721 5717 5713 5710 5707 5704
5797 5793 5789 5788 5786 5785 5785 5784 5784 5783 5783 5783 5783 5783 5783 5783 5783 5782 5781 5780 5778 5776 5774 5771 5768 5765 5762 5759 5756 5753 5751 5748 5745 5742 5738 5735 5732 5728 5725 5721 5717 5714 5711 5708
5800 5795 5792 5789 5787 5785 5784 5783 5783 5782 5782 5782 5781 5781 5781 5782 5782 5781 5781 5780 5778 5777 5775 5773 5770 5767 5765 5762 5759 5757 5754 5752 5749 5746 5743 5740 5737 5733 5730 5727 5723 5720 5716 5713
5801 5797 5794 5790 5787 5785 5783 5782 5781 5781 5780 5779 5779 5779 5779 5780 5780 5780 5780 5780 5779 5777 5776 5774 5772 5769 5767 5764 5762 5760 5758 5755 5753 5750 5747 5744 5741 5738 5735 5732 5729 5726 5723 5720
5800 5798 5794 5791 5788 5786 5783 5781 5780 5778 5777 5776 5776 5776 5776 5777 5778 5778 5779 5779 5778 5777 5776 5774 5773 5771 5769 5766 5764 5762 5760 5758 5756 5753 5751 5748 5745 5743 5740 5737 5735 5732 5729 5726
5799 5796 5794 5791 5788 5786 5783 5781 5778 5776 5774 5773 5772 5772 5772 5773 5774 5775 5776 5777 5777 5776 5776 5775 5773 5772 5770 5768 5766 5764 5763 5761 5759 5757 5754 5752 5749 5747 5744 5741 5739 5737 5734 5731
5795 5794 5792 5789 5787 5785 5782 5780 5777 5775 5772 5770 5769 5768 5768 5769 5771 5772 5773 5774 5775 5775 5775 5774 5773 5772 5771 5769 5767 5766 5764 5763 5761 5759 5757 5755 5752 5750 5747 5745 5742 5740 5738 5735
5791 5790 5788 5786 5785 5783 5780 5778 5776 5773 5771 5768 5766 5764 5763 5764 5766 5768 5770 5771 5772 5773 5773 5773 5772 5772 5771 5769 5768 5767 5765 5764 5763 5761 5759 5757 5755 5752 5750 5748 5745 5743 5741 5738
5785 5785 5784 5783 5781 5779 5778 5776 5773 5771 5769 5766 5764 5761 5759 5759 5761 5763 5765 5767 5769 5770 5771 5771 5771 5771 5770 5769 5768 5767 5766 5765 5764 5762 5760 5758 5757 5754 5752 5750 5748 5745 5743 5741
5779 5779 5778 5778 5777 5775 5774 5772 5770 5768 5766 5764 5761 5759 5757 5756 5756 5758 5760 5762 5764 5766 5767 5769 5769 5769 5769 5768 5767 5766 5765 5765 5764 5762 5761 5759 5758 5756 5754 5752 5749 5747 5745 5743
5771 5772 5772 5772 5771 5770 5769 5768 5766 5765 5763 5761 5759 5757 5755 5753 5753 5753 5755 5756 5758 5761 5763 5765 5766 5767 5767 5766 5766 5765 5764 5764 5763 5762 5761 5760 5758 5756 5754 5752 5750 5748 5746 5744
5763 5764 5764 5764 5764 5763 5763 5762 5761 5760 5759 5757 5756 5754 5752 5750 5749 5749 5750 5751 5753 5755 5757 5760 5762 5763 5764 5764 5763 5763 5763 5762 5761 5761 5760 5759 5758 5756 5754 5753 5751 5749 5747 5745